GFSSW_con_mucape_132.txt.gz
CAPE
0 0 5 11 32 36 34 33 21 21 21 8 22 24 25 0 0 0 0 0 0 0 0 0 0 0 0 0 0 0 0 0 0 0 0 0 0 0 0 28 0 691 833 393 588
0 0 5 3 0 17 19 28 40 34 9 26 27 31 11 16 0 0 0 0 0 0 0 0 0 0 0 0 0 0 0 0 0 0 0 0 0 0 0 0 0 15 620 456 713
0 0 9 13 15 26 21 7 8 29 38 37 39 36 34 0 0 0 0 0 0 0 0 0 0 0 0 0 0 0 0 0 0 0 0 0 0 0 0 0 0 0 37 931 709
19 17 25 33 28 27 11 1 1 11 24 50 36 37 43 2 0 0 0 0 0 0 0 0 0 0 0 0 0 0 0 0 0 0 0 0 0 0 0 0 0 0 355 84 412
43 42 46 46 43 40 27 2 7 1 7 21 33 23 34 0 0 0 0 0 0 0 0 0 0 0 0 0 0 0 0 0 0 0 0 0 0 0 0 0 0 0 0 0 100
49 38 53 56 53 56 52 48 19 5 0 7 41 52 0 0 0 0 0 0 0 0 0 0 0 0 0 0 0 0 0 0 0 0 0 0 0 0 0 0 0 0 0 2 144
33 37 55 41 44 63 64 57 40 20 5 3 8 62 0 0 0 0 0 0 0 0 0 0 0 0 0 0 0 0 0 0 0 0 0 0 0 0 0 0 0 0 0 0 0
38 42 32 17 14 37 56 75 52 28 21 20 30 53 0 0 0 0 0 0 0 0 0 0 0 0 0 0 0 0 0 0 0 0 0 0 0 0 0 0 0 0 0 0 0
15 39 47 24 21 27 52 47 6 8 11 39 20 23 0 0 0 0 0 0 0 0 0 0 0 0 0 0 0 0 0 0 0 0 0 0 0 0 0 0 0 0 0 2 0
42 46 45 44 34 61 49 38 0 0 1 7 27 17 0 0 0 0 0 0 0 0 0 0 0 0 0 0 0 0 0 0 0 0 0 0 0 0 0 0 0 0 0 0 0
46 48 46 49 52 51 26 0 0 0 2 0 0 0 0 0 0 0 0 0 0 0 0 0 0 0 0 0 0 0 0 0 0 0 0 0 0 0 0 0 0 0 0 0 0
37 30 39 48 46 36 5 0 7 27 3 0 0 1 0 0 0 0 0 0 0 0 0 0 0 0 0 0 0 0 0 0 0 0 0 0 0 0 0 0 0 0 0 0 0
48 43 32 48 56 3 0 0 13 17 36 0 0 0 0 0 0 5 0 0 0 0 0 0 0 0 0 0 0 0 0 0 0 15 38 34 2 0 0 0 0 0 0 0 0
28 34 47 56 8 0 0 0 7 13 15 0 1 16 0 2 4 26 0 0 0 0 0 0 0 0 0 0 0 0 0 0 0 36 40 73 0 1 0 0 0 0 0 0 0
23 36 50 48 2 0 0 3 8 44 0 0 24 22 0 0 0 10 4 6 1 0 0 0 0 0 0 0 0 0 0 0 0 7 48 41 0 0 0 0 0 0 0 0 0
19 22 6 0 0 4 0 7 5 63 0 1 38 13 0 2 0 18 29 65 10 15 0 0 0 0 0 0 0 0 0 0 0 3 0 0 0 0 0 0 0 0 0 0 0
18 0 0 5 21 24 2 0 11 0 0 3 2 0 0 1 0 4 23 86 51 30 13 0 0 0 0 0 0 0 0 0 0 0 0 0 0 0 0 0 0 0 0 7 0
0 0 0 0 3 17 0 0 0 0 0 0 0 0 9 9 0 45 37 47 62 0 6 0 0 0 0 0 0 0 0 0 0 0 2 0 0 0 0 0 0 0 0 9 0
0 0 0 0 2 4 0 0 1 0 0 0 0 0 0 2 5 21 4 5 3 0 0 0 0 0 0 0 0 0 0 0 0 0 1 0 0 2 0 3 0 0 0 0 0
0 0 0 2 12 2 0 0 0 1 0 0 0 0 0 0 0 1 10 5 1 0 0 0 0 0 0 0 0 0 0 0 0 0 0 3 36 34 40 4 0 0 0 29 247
0 0 0 36 13 0 0 0 4 6 10 0 0 0 0 0 0 0 4 21 0 4 0 0 0 0 0 0 0 0 0 0 0 0 0 0 0 89 81 0 0 0 1 515 598
0 0 0 23 0 0 0 8 0 9 0 0 0 0 0 0 0 0 0 46 0 0 0 0 0 15 0 0 0 0 0 0 0 0 10 0 0 10 65 0 0 0 370 551 353
0 0 0 0 0 0 2 5 45 15 0 0 0 0 0 0 0 0 16 38 10 0 0 0 0 14 0 0 0 0 0 0 5 51 35 0 0 4 38 3 44 388 508 315 518
0 0 0 0 0 0 0 1 27 21 4 0 0 0 0 0 1 45 91 56 24 0 262 6 0 38 0 0 8 0 0 0 20 2 8 3 6 0 35 36 60 154 233 212 583
0 0 0 0 0 0 0 3 7 0 0 0 0 0 0 0 2 4 20 19 55 129 8 2 83 130 41 30 74 18 0 5 16 3 5 42 44 0 32 10 20 27 29 40 22
0 0 0 0 0 0 2 0 0 0 0 0 0 0 0 0 0 0 0 7 5 0 31 63 58 138 30 9 55 84 150 166 246 112 85 90 115 0 8 8 0 3 13 0 0
0 0 0 0 0 0 0 0 0 0 0 0 0 0 0 0 0 3 18 15 2 0 76 81 34 43 33 14 59 56 133 181 164 141 88 26 42 0 18 15 6 0 1 0 2

GFSSW_con_mucape_138.txt.gz
CAPE
42 50 34 27 27 28 31 29 8 5 0 6 38 12 17 29 34 0 0 0 0 0 0 0 0 0 0 0 0 0 0 0 0 0 0 0 0 0 0 0 0 259 645 878 1361
11 12 33 45 41 46 43 42 34 28 17 9 21 44 20 0 0 0 0 0 0 0 0 0 0 0 0 0 0 0 0 0 0 0 0 0 0 0 0 0 0 749 1090 1258 1336
0 0 13 16 16 31 29 44 43 38 31 26 25 29 50 23 0 0 0 3 2 0 0 0 0 0 0 0 0 0 0 0 0 0 0 0 0 0 0 0 0 698 1019 1134 1238
0 0 0 0 16 18 27 35 40 48 44 40 32 18 47 0 0 1 0 0 0 0 0 0 0 0 0 0 0 0 0 0 0 0 0 0 0 0 0 0 0 73 909 881 1064
0 0 0 0 0 5 21 27 22 17 37 63 54 28 31 0 0 1 0 0 2 0 0 0 0 0 0 0 0 0 0 0 0 0 0 0 0 0 0 0 0 7 701 883 913
0 0 0 0 0 0 0 32 27 21 19 12 73 71 5 0 0 0 0 0 0 0 0 0 0 0 0 0 0 0 0 0 0 0 0 0 0 0 0 0 0 0 104 452 668
55 33 31 32 20 23 17 33 30 18 14 17 13 81 5 0 0 0 0 0 0 0 0 0 0 0 0 0 0 0 0 0 0 0 0 0 0 0 0 0 0 0 0 5 137
48 51 6 0 1 25 25 29 17 9 15 14 17 40 0 0 0 0 0 0 0 2 0 0 0 0 0 0 0 0 0 0 0 0 0 0 0 0 0 0 0 0 0 0 0
30 34 20 25 25 27 35 38 22 16 27 22 18 22 0 0 0 0 0 0 0 1 0 0 0 0 0 0 0 0 0 0 0 0 0 0 0 0 0 0 0 0 0 0 0
3 30 49 35 37 47 51 43 1 2 0 4 26 9 0 0 0 0 5 0 0 0 0 0 0 0 0 0 0 0 0 0 0 0 0 0 0 0 0 0 0 0 0 0 0
21 40 48 51 0 69 15 0 0 0 16 0 0 0 0 0 0 0 17 0 0 0 0 0 0 0 0 0 0 0 0 0 0 0 0 0 0 0 0 0 0 0 0 0 0
20 40 54 3 60 0 0 0 0 0 0 0 0 0 0 0 0 0 12 8 0 0 0 0 0 0 0 0 0 0 0 0 0 0 0 0 0 0 0 0 0 0 0 0 0
30 42 0 0 0 0 0 0 0 0 0 0 0 0 0 0 3 0 0 26 2 0 0 0 0 0 0 0 0 0 0 0 0 0 0 0 0 0 0 0 0 0 0 0 0
29 20 0 0 0 0 1 0 0 0 0 0 0 0 0 0 2 0 0 2 27 0 0 0 0 0 0 0 0 0 0 0 0 0 0 0 0 0 0 0 0 0 0 0 0
19 0 0 0 0 0 3 0 0 0 0 0 10 30 2 0 0 5 0 2 22 0 45 0 0 0 0 0 0 0 0 0 0 0 0 0 0 0 0 0 0 0 0 0 0
0 0 0 0 0 7 11 0 0 0 0 0 46 31 1 9 1 1 0 0 9 8 26 13 11 0 0 0 0 0 0 0 0 0 0 0 0 0 0 0 0 0 0 0 0
0 0 0 0 0 38 21 0 0 0 0 0 0 0 0 0 0 0 25 2 86 52 0 62 0 0 0 0 0 0 0 0 0 0 0 0 0 0 0 0 0 0 0 0 0
0 0 0 0 13 22 0 0 0 1 0 0 0 0 0 0 0 4 22 23 45 32 0 0 0 1 0 0 0 0 0 0 0 0 0 0 0 0 0 0 0 0 0 0 0
0 0 0 0 15 0 0 0 0 0 0 0 0 4 4 3 1 32 6 6 38 37 0 0 0 0 0 0 0 0 0 0 0 0 0 0 0 0 0 0 0 0 0 0 0
0 0 0 0 0 0 0 0 0 0 0 0 0 8 2 15 10 21 33 2 23 33 25 0 0 0 0 0 0 0 0 0 0 0 0 0 0 0 0 0 0 0 0 2 106
0 0 0 0 0 0 0 0 0 0 0 0 0 0 3 35 7 0 4 0 29 25 20 0 0 0 0 0 0 0 0 0 0 0 0 0 0 0 0 0 0 0 77 340 432
0 0 0 0 0 0 0 0 0 0 0 0 0 2 0 3 0 0 46 24 28 30 10 0 0 0 0 0 0 0 0 0 0 0 0 0 0 0 0 2 11 308 427 552 798
0 0 0 0 0 0 0 0 0 0 0 0 0 1 0 0 0 0 6 52 6 6 1 0 0 0 0 0 0 0 0 0 0 0 0 0 0 0 34 341 405 527 572 810 824
0 0 0 0 0 0 0 0 0 0 0 0 0 0 0 0 0 0 18 86 1 0 53 0 0 0 0 0 0 0 0 0 0 0 0 0 0 0 18 331 504 555 718 506 271
0 0 0 0 0 0 0 0 0 0 0 0 0 0 0 0 0 21 30 10 0 27 0 0 22 0 0 0 0 0 0 0 0 0 0 0 0 1 14 232 509 393 331 174 159
0 0 0 0 0 0 0 0 0 0 0 0 0 0 0 0 0 15 22 0 0 1 0 18 28 0 7 0 0 0 0 0 0 0 0 0 0 0 13 131 356 335 245 114 57
0 0 0 0 0 0 0 0 0 0 0 0 0 0 1 0 7 8 33 1 0 0 4 36 28 43 64 48 57 68 35 4 2 4 1 1 0 5 0 10 282 194 164 51 40

GFSSW_con_mucape_141.txt.gz
CAPE
0 0 7 8 11 21 34 42 45 39 37 25 20 22 41 40 16 0 0 0 0 0 0 0 0 0 0 0 0 0 0 0 0 0 0 0 0 0 0 0 320 996 1147 1553 1424
0 0 0 0 0 7 13 21 32 40 46 41 31 24 30 43 0 0 0 0 0 0 0 0 0 0 0 0 0 0 0 0 0 0 0 0 0 0 0 0 0 1106 1288 1431 1570
0 0 0 0 0 3 16 19 17 22 39 53 46 36 28 41 0 0 1 1 0 0 0 0 0 0 0 0 0 0 0 0 0 0 0 0 0 0 0 0 0 563 1314 1466 1557
0 0 0 0 0 10 25 22 17 15 10 19 45 51 38 25 0 0 4 0 0 0 3 0 0 0 0 0 0 0 0 0 0 0 0 0 0 0 0 0 0 1075 1231 1401 1515
30 33 28 7 11 4 10 0 23 16 22 19 12 29 57 0 0 4 1 0 0 13 4 0 0 0 0 0 0 0 0 0 0 0 0 0 0 0 0 0 0 867 953 1257 1455
28 21 20 24 22 27 28 31 26 21 22 25 14 14 53 0 0 0 0 5 0 0 10 0 0 0 0 0 0 0 0 0 0 0 0 0 0 0 0 0 0 775 835 734 1194
37 19 20 24 24 26 29 39 35 22 16 10 3 12 6 0 0 0 0 0 0 8 0 2 0 0 0 0 0 0 0 0 0 0 0 0 0 0 0 0 0 76 753 376 564
18 25 23 20 28 33 0 64 45 30 22 28 43 25 0 0 0 0 0 0 0 0 1 0 0 0 0 0 0 0 0 0 0 0 0 0 0 0 0 0 0 0 0 268 251
22 26 24 23 30 0 49 29 30 34 29 25 42 27 0 0 0 0 0 0 0 0 4 0 0 0 0 0 0 0 0 0 0 0 0 0 0 0 0 0 0 0 0 0 29
21 32 38 45 0 43 0 0 0 0 0 1 6 0 0 0 0 0 8 0 0 0 18 0 0 0 0 0 0 0 0 0 0 0 0 0 0 0 0 0 0 0 0 0 0
13 32 44 44 49 0 0 0 0 0 0 0 0 0 0 0 0 30 13 0 6 0 0 0 0 0 0 0 0 0 0 0 0 0 0 0 0 0 0 0 0 0 0 0 0
18 25 35 0 0 0 0 0 0 0 0 0 0 11 0 0 0 58 11 24 1 0 0 0 0 0 0 0 0 0 0 0 0 0 0 0 0 0 0 0 0 0 0 0 0
27 33 0 0 0 0 0 0 0 0 0 0 0 0 0 0 1 1 0 20 4 0 0 0 0 0 0 0 0 0 0 0 0 0 0 0 0 0 0 0 0 0 0 0 0
21 3 0 0 0 0 0 3 0 0 0 0 0 0 0 0 2 0 0 15 26 0 0 0 0 0 0 0 0 0 0 0 0 0 0 0 0 0 0 0 0 0 0 0 0
14 0 0 0 0 0 0 10 0 0 0 0 0 0 3 6 3 29 0 33 47 2 0 0 0 0 0 0 0 0 0 0 0 0 0 0 0 0 0 0 0 0 0 0 0
0 0 0 0 0 0 6 1 0 0 0 0 0 0 0 0 0 21 0 25 76 37 0 9 65 1 0 0 0 0 0 0 0 0 0 0 0 0 0 0 0 0 0 0 0
1 0 0 0 0 11 2 0 0 0 0 0 0 0 0 0 0 0 51 38 14 155 0 68 90 23 1 0 0 0 0 0 0 0 0 0 0 0 0 0 0 0 0 0 0
0 0 0 0 2 0 0 0 0 0 0 0 0 0 28 2 0 0 0 51 33 93 0 0 4 13 0 0 0 0 0 0 0 0 0 0 0 0 0 0 0 0 0 0 0
0 0 0 0 0 0 0 0 0 0 0 0 0 26 26 54 43 27 4 17 0 114 0 107 27 4 0 0 0 0 0 0 0 0 0 0 0 0 0 0 0 0 0 0 0
0 0 0 0 0 0 0 0 0 0 0 0 0 45 81 49 59 18 15 7 5 113 163 104 32 12 0 0 0 0 0 0 0 0 0 0 0 0 0 0 0 0 0 0 0
0 0 0 0 0 0 0 0 0 0 0 0 0 0 10 37 50 53 0 0 50 60 128 37 48 0 0 0 0 0 0 0 0 0 0 0 0 0 6 7 0 0 177 19 18
0 0 0 0 0 0 0 0 0 0 0 1 0 0 0 15 20 35 4 56 7 94 17 6 44 0 0 0 0 0 0 0 0 0 0 0 0 0 11 21 0 268 150 10 28
0 0 0 0 0 0 0 0 0 0 0 0 3 0 0 0 13 0 18 46 8 102 75 9 35 0 0 0 0 0 0 0 0 0 0 0 0 0 54 317 364 342 48 210 501
0 0 0 0 0 0 0 0 0 0 0 0 0 4 0 0 0 1 0 4 5 52 258 34 0 0 0 0 0 0 0 0 0 0 0 0 0 33 206 332 448 361 285 456 363
0 0 0 0 0 0 0 0 0 0 0 0 0 0 2 0 6 3 6 1 30 16 51 1 16 0 0 0 0 0 0 0 0 0 0 0 0 57 121 486 151 188 317 268 78
0 0 0 0 0 0 0 0 0 0 0 0 0 0 0 1 11 0 0 0 0 0 0 3 89 0 0 0 0 0 0 0 0 0 0 0 21 30 69 175 262 360 274 90 2
0 0 0 0 0 0 0 0 0 0 0 0 0 0 0 1 18 5 0 0 1 3 20 24 58 78 0 0 0 0 0 0 0 0 0 4 29 90 42 161 200 290 144 55 7

GFSSW_con_mucape_144.txt.gz
CAPE
0 0 0 0 0 14 17 12 8 16 26 32 41 35 25 13 20 0 0 0 0 0 0 0 0 0 0 0 0 0 0 0 0 0 0 0 0 0 0 0 16 668 802 1870 1853
0 0 0 11 8 0 16 13 10 13 14 23 45 45 33 20 0 0 0 0 0 0 0 0 0 0 0 0 0 0 0 0 0 0 0 0 0 0 0 0 4 794 1620 1809 1865
3 19 20 19 18 17 18 18 8 11 8 12 12 38 58 9 0 0 0 0 0 0 0 0 0 0 0 0 0 0 0 0 0 0 0 0 0 0 0 0 0 104 1475 1976 2049
3 20 21 19 24 23 19 17 14 14 6 13 21 15 35 38 0 1 0 2 0 0 1 0 0 0 0 0 0 0 0 0 0 0 0 0 0 0 0 0 0 101 1306 1876 2128
17 21 20 18 23 28 24 21 18 13 13 17 24 21 20 21 0 9 49 23 1 0 1 0 0 0 0 0 0 0 0 0 0 0 0 0 0 0 0 0 0 459 1393 1926 2270
19 18 11 15 22 31 43 39 24 0 0 10 16 16 10 0 0 6 1 0 0 0 27 10 0 0 0 0 0 0 0 0 0 0 0 0 0 0 0 0 0 423 809 1198 1880
22 24 19 22 28 36 41 40 39 1 0 26 27 38 0 0 0 0 0 0 0 4 0 26 5 0 0 0 0 0 0 0 0 0 0 0 0 0 0 0 0 290 509 631 1226
21 29 25 26 30 30 44 36 0 0 0 51 54 53 0 0 0 0 0 3 2 1 0 8 38 0 0 0 0 0 0 0 0 0 0 0 0 0 0 0 0 86 255 305 720
22 34 31 28 26 9 0 0 0 0 0 30 52 23 0 0 0 0 0 0 14 1 0 0 24 0 0 0 0 0 0 0 0 0 0 0 0 0 0 0 0 0 0 15 205
31 35 39 32 25 0 0 0 0 0 0 1 6 4 0 0 0 1 6 2 0 1 0 0 0 0 0 0 0 0 0 0 0 0 0 0 0 0 0 0 0 0 0 0 0
23 37 35 41 33 0 0 0 0 0 0 0 0 0 0 0 0 89 6 10 17 1 0 6 0 0 0 0 0 0 0 0 0 0 0 0 0 0 0 0 0 0 0 0 0
18 32 33 23 0 0 0 0 0 0 0 0 0 5 1 10 17 97 1 6 20 0 14 0 0 0 0 0 0 0 0 0 0 0 0 0 0 0 0 0 0 0 0 0 0
23 24 23 0 0 0 0 0 0 0 0 0 0 0 2 12 15 37 113 45 14 19 31 16 0 0 0 0 0 0 0 0 0 0 0 0 0 0 0 0 0 0 0 0 0
5 22 1 0 0 0 0 6 5 1 0 0 0 0 0 1 6 1 17 26 90 17 12 44 33 0 0 0 0 0 0 0 0 0 0 0 0 0 0 0 0 0 0 0 0
0 24 0 0 0 0 0 4 0 0 0 0 0 3 14 17 56 82 2 8 45 65 53 32 62 0 0 0 0 0 0 0 0 0 0 0 0 0 0 0 0 0 0 0 0
0 0 0 0 0 0 0 0 0 0 0 0 0 0 0 25 11 25 22 16 26 71 25 54 46 52 13 0 0 0 0 0 0 0 0 0 0 0 0 0 0 0 0 0 0
0 0 0 0 0 0 0 0 0 0 0 0 0 0 0 0 0 29 31 41 108 139 82 42 107 84 17 0 0 0 0 0 0 0 0 0 0 0 0 0 0 0 0 0 0
0 0 0 0 0 0 0 0 0 0 0 0 0 0 0 0 0 0 0 69 119 171 108 0 12 135 33 0 0 0 0 0 0 0 0 0 0 0 0 0 0 0 0 0 0
0 0 0 0 0 0 0 0 0 0 0 0 0 44 116 50 32 0 1 43 58 128 105 6 92 114 2 0 0 0 0 0 0 0 0 0 0 0 0 0 0 0 0 0 0
0 0 0 0 0 0 0 0 0 0 0 0 0 50 210 45 115 226 17 2 52 6 180 89 117 93 32 4 0 0 0 0 0 0 0 0 0 0 0 0 0 0 0 0 0
0 2 0 0 0 0 0 0 0 0 0 0 0 0 45 69 84 87 111 30 7 0 49 32 67 74 69 9 0 0 0 0 0 0 0 0 0 0 4 0 1 413 362 338 41
0 3 0 0 0 0 0 0 0 0 0 0 0 0 31 17 79 87 7 0 0 24 36 0 196 81 0 0 0 0 0 0 0 0 0 0 0 6 2 56 546 112 75 13 79
0 0 0 0 0 0 0 0 0 0 0 0 0 3 2 35 36 43 93 85 2 34 59 146 216 123 0 33 6 0 0 0 8 1 0 0 0 22 349 551 312 220 110 64 133
0 0 1 16 0 0 0 0 0 0 0 0 3 8 0 0 10 20 21 59 19 89 0 42 191 6 0 0 0 0 0 0 7 0 0 1 2 202 625 322 225 109 26 31 11
0 1 0 0 0 0 0 0 0 0 0 0 0 1 0 0 0 0 29 32 3 80 218 249 246 74 28 5 0 0 0 0 0 0 2 0 7 191 669 153 139 174 44 46 6
0 0 0 0 0 0 0 0 0 0 0 0 0 0 2 4 0 11 36 85 95 142 295 351 181 63 0 0 0 0 0 0 0 0 0 0 141 394 573 163 216 327 35 43 75
0 0 0 0 0 0 0 0 0 0 0 0 3 2 19 0 0 7 35 38 57 40 101 329 204 78 0 0 0 0 0 0 0 0 0 0 132 524 460 109 123 354 44 72 31

GFSSW_con_mucape_147.txt.gz
CAPE
2 20 17 17 16 8 8 9 9 10 10 8 7 10 25 33 7 0 0 0 0 0 0 0 0 0 0 0 0 0 0 0 0 0 0 0 7 0 0 0 0 252 1159 2374 2107
14 11 13 14 17 19 17 14 16 8 5 8 10 9 12 19 22 0 0 0 0 0 0 0 0 0 0 0 0 0 0 0 0 0 0 0 0 0 0 0 0 579 1260 1583 1900
19 15 18 17 18 19 15 9 14 11 9 11 12 14 2 0 4 0 0 0 0 0 0 0 0 0 0 0 0 0 0 0 0 0 0 0 0 0 0 0 0 464 1494 1481 1991
22 21 15 17 17 19 21 22 17 21 0 0 0 5 5 13 0 28 0 0 0 0 0 0 0 0 0 0 0 0 0 0 0 0 0 0 0 0 0 0 2 3 1358 1540 1871
17 18 15 17 20 26 22 24 25 26 26 0 0 0 0 0 0 21 36 32 14 1 0 0 0 0 0 0 0 0 0 0 0 0 0 0 0 0 0 0 0 6 931 1489 1843
14 17 18 21 26 32 39 44 41 15 0 0 0 0 0 0 0 0 0 3 2 7 1 8 0 0 0 0 0 0 0 0 0 0 0 0 0 0 0 0 0 12 737 1236 1755
26 26 30 32 26 28 35 34 7 0 0 0 0 0 0 0 0 1 0 0 5 6 13 23 1 0 0 0 0 0 0 0 0 0 0 0 0 0 0 0 0 8 476 656 1420
23 32 39 32 26 24 33 32 0 0 0 50 56 36 0 0 0 0 0 6 3 23 3 7 8 24 0 0 0 0 0 0 0 0 0 0 0 0 0 0 0 0 340 510 760
24 33 37 34 26 22 22 0 0 0 13 18 52 55 6 2 0 0 0 0 2 29 11 2 1 0 0 0 0 0 0 0 0 0 0 0 0 0 0 0 0 0 151 381 589
24 25 29 37 24 0 0 0 0 0 0 0 0 3 0 0 1 0 10 7 5 25 38 16 5 61 0 0 0 0 0 0 0 0 0 0 0 0 0 0 0 0 70 227 337
17 26 28 32 32 0 0 13 0 0 0 0 0 0 0 1 0 14 131 67 19 47 64 50 9 0 0 0 0 0 0 0 0 0 0 0 0 0 0 0 0 0 2 0 11
24 31 30 20 0 0 0 0 0 0 0 0 0 1 3 15 17 24 116 136 71 11 32 86 0 2 0 0 0 0 0 0 0 0 0 0 0 0 0 0 0 0 3 0 0
24 27 0 0 0 0 0 0 0 6 0 0 0 0 0 11 24 28 50 195 103 69 62 69 5 21 16 0 0 0 0 0 0 0 0 0 0 0 0 0 0 0 0 0 0
17 0 0 0 0 13 0 0 0 4 0 0 0 9 6 10 6 12 45 174 175 136 33 31 38 23 28 0 0 0 0 0 0 0 0 0 0 0 0 0 0 0 0 0 0
14 0 0 0 0 0 0 0 4 0 0 0 0 10 20 0 40 3 20 112 59 160 45 13 61 57 86 1 9 0 0 0 0 0 0 0 0 0 0 0 0 0 0 0 0
1 0 0 4 0 0 0 0 0 0 0 0 18 8 0 12 0 75 111 29 82 21 193 54 76 120 89 17 5 2 1 0 0 0 0 0 0 0 0 0 0 0 0 0 0
0 0 0 3 0 0 0 0 0 0 0 45 39 39 50 97 23 5 25 21 73 57 187 32 83 112 43 29 0 7 16 0 0 0 0 0 0 29 0 0 0 0 0 0 0
0 0 2 16 11 0 0 0 0 0 0 5 20 17 32 16 3 0 79 41 11 65 135 101 49 106 109 46 0 3 0 0 0 0 0 3 0 0 0 0 0 0 0 0 0
0 0 26 2 26 0 0 0 0 0 0 0 1 36 95 28 28 16 120 56 29 107 108 96 94 38 145 24 6 10 0 0 1 2 0 1 2 0 0 0 0 0 0 0 0
0 6 8 1 15 0 0 0 0 0 0 0 0 32 67 73 139 42 22 9 77 69 108 105 135 1 49 54 6 9 0 5 2 0 0 0 0 0 0 0 0 0 0 0 0
0 46 0 16 25 30 0 0 0 0 0 0 0 0 66 127 126 64 36 18 117 18 5 323 162 167 99 19 0 0 0 2 2 19 0 0 0 2 0 0 4 25 32 536 509
0 6 0 14 19 0 0 0 0 0 0 0 4 0 4 174 132 149 179 161 78 42 147 233 123 189 79 0 0 0 0 5 27 28 35 32 79 3 33 56 476 625 688 191 335
0 2 7 25 0 0 0 0 0 0 0 0 1 0 3 65 114 199 157 11 15 61 241 70 132 311 105 15 4 8 6 0 0 28 42 8 100 82 707 729 355 171 60 265 347
0 0 0 16 13 0 0 0 0 0 0 0 3 3 0 43 117 130 143 25 35 101 30 8 173 296 76 2 11 1 4 1 15 13 0 50 40 127 561 78 34 138 631 618 537
0 0 2 2 19 0 0 0 0 0 0 0 0 0 0 1 0 107 92 46 64 105 11 0 296 242 29 7 2 0 0 0 29 12 15 58 47 609 585 86 148 224 269 95 14
0 0 5 0 19 14 0 0 0 0 0 0 0 0 8 2 105 135 162 70 76 25 10 547 396 179 96 52 14 8 1 10 2 0 51 15 233 816 272 129 187 77 138 129 88
9 7 4 3 23 35 18 0 0 0 0 0 0 6 0 0 19 175 306 188 275 230 435 278 285 185 156 69 16 1 6 3 1 0 47 119 587 548 140 177 194 165 263 187 30